Location: Newark
(15.4608°S, 41.1635°W)
Time: 14:16:30
(UTC+00:00)

Envisat - Pass Details

Date: 22 June 2021
Orbit: 764 x 766 km, 98.1° (Epoch: 25 July)

Event Time Altitude Azimuth Distance (km) Brightness Sun altitude
Rises 06:29:58 0° 51° (NE) 3,216 7.1 -37.1°
Reaches altitude 10° 06:33:14 10° 73° (ENE) 2,298 6.2 -36.3°
Maximum altitude 06:36:02 15° 107° (ESE) 1,976 5.6 -35.7°
Drops below altitude 10° 06:38:50 10° 141° (SE) 2,309 5.7 -35.0°
Enters shadow 06:38:51 10° 141° (SE) 2,310 5.7 -35.0°
